Meteo Giornale » Osservazioni meteo Italia » Bari-Palese Macchie

ore: 15:20 - Osservazioni Meteo Bari-Palese Macchie
Lat. 41° 8' N Lon. 16° 47' E Alt. 34 metri s.l.m.

poco_nuvoloso Europe/Rome

29 °C

Poco Nuvoloso

Temp. 24 Ore

22 °C

29 °C

Nord-Est

20.3 Km/h

Dew point 23 °C

Umidità 70 %

Visibilità  10 Km

Il sole sorge alle ore 06:09

Il sole tramonta alle ore 19:41

Data e Ora Cielo e Fenomeni T °C DP °C Um. % Pres. hPa Vis. km Vento km/h
Oggi h: 15:20 poco_nuvoloso Poco Nuvoloso 29 23 70 1018 10 NE 20.3
Oggi h: 14:50 poco_nuvoloso Poco Nuvoloso 29 22 66 1018 10 N 18.5
Oggi h: 14:20 sereno Sereno 29 23 70 1018 10 N/NE 16.7
Oggi h: 13:50 sereno Sereno 28 23 74 1019 10 N/NE 16.7
Oggi h: 13:20 sereno Sereno 29 22 66 1019 10 N 14.8
Oggi h: 12:50 sereno Sereno 28 22 69 1019 10 N 14.8
Oggi h: 12:20 sereno Sereno 29 21 62 1019 10 N 13
Oggi h: 11:50 sereno Sereno 29 21 62 1019 10 N 14.8
Oggi h: 11:20 poco_nuvoloso Poco Nuvoloso 28 22 69 1019 10 N/NE 13
Oggi h: 10:50 poco_nuvoloso Poco Nuvoloso 28 22 69 1019 10 N 14.8
Oggi h: 10:20 poco_nuvoloso Poco Nuvoloso 28 22 69 1019 10 N 14.8
Oggi h: 09:50 poco_nuvoloso Poco Nuvoloso 27 22 74 1019 10 N/NO 13
Oggi h: 09:20 sereno Sereno 27 21 69 1019 10 N/NO 9.3
Oggi h: 08:50 sereno Sereno 27 21 69 1019 10 NO 13
Oggi h: 08:20 sereno Sereno 26 20 69 1018 10 NO 11.1
Oggi h: 07:50 sereno Sereno 24 20 78 1018 10 O/NO 9.3
Oggi h: 07:20 sereno Sereno 23 20 83 1018 10 O/NO 9.3
Oggi h: 06:50 sereno Sereno 22 20 88 1018 10 O/NO 7.4
Oggi h: 06:20 sereno Sereno 22 20 88 1018 8 O 7.4
Oggi h: 05:50 sereno Sereno 23 20 83 1018 10 N 5.5
Oggi h: 05:20 sereno Sereno 23 21 88 1018 10 O 11.1
Oggi h: 04:50 sereno Sereno 23 21 88 1018 10 O 7.4
Oggi h: 04:20 sereno Sereno 23 21 88 1018 10 SO 7.4
Oggi h: 03:50 sereno Sereno 23 22 94 1018 10 O/SO 9.3
Oggi h: 03:20 poco_nuvoloso Poco Nuvoloso 24 22 88 1018 10 N 5.5
Oggi h: 02:50 nuvoloso Nuvoloso 25 22 83 1018 10 O 7.4
Oggi h: 02:20 nuvoloso Nuvoloso 24 22 88 1019 10 O 9.3
Oggi h: 01:50 poco_nuvoloso Poco Nuvoloso 24 22 88 1019 10 O/NO 7.4
Oggi h: 01:20 poco_nuvoloso Poco Nuvoloso 25 22 83 1019 10 O/NO 9.3
Oggi h: 00:50 poco_nuvoloso Poco Nuvoloso 25 22 83 1019 10 N 5.5
Oggi h: 00:20 poco_nuvoloso Poco Nuvoloso 25 22 83 1019 10 NO 9.3
Ieri h: 23:50 poco_nuvoloso Poco Nuvoloso 25 22 83 1018 10 NO 7.4
Ieri h: 23:20 sereno Sereno 25 22 83 1018 10 N/NO 11.1
Ieri h: 22:50 sereno Sereno 24 21 83 1018 10 N 1.8
Ieri h: 22:20 sereno Sereno 24 21 83 1018 10 N 1.8
Ieri h: 21:50 sereno Sereno 25 22 83 1018 10 N 1.8
Ieri h: 21:20 sereno Sereno 26 22 78 1018 10 N 3.7
Ieri h: 20:50 sereno Sereno 26 22 78 1017 10 N 5.5
Ieri h: 20:20 sereno Sereno 27 22 74 1017 10 N 5.5
Ieri h: 19:50 sereno Sereno 27 22 74 1017 10 N 5.5
Ieri h: 19:20 sereno Sereno 28 21 65 1017 10 E 7.4
Ieri h: 18:50 sereno Sereno 28 22 69 1016 10 E 9.3
Ieri h: 18:20 sereno Sereno 29 22 66 1017 10 E 9.3
Ieri h: 17:50 sereno Sereno 29 22 66 1017 10 E 9.3
Ieri h: 17:20 sereno Sereno 29 22 66 1017 10 E/NE 11.1
Ieri h: 16:50 sereno Sereno 29 22 66 1017 10 NE 11.1
Ieri h: 16:20 sereno Sereno 29 23 70 1017 10 N/NE 13
Ieri h: 15:50 sereno Sereno 29 23 70 1017 10 N/NE 14.8